Location: Oshawa
(43.9000°N, 78.8670°W)
Time: 23:53:19
(UTC-04:00)

Envisat - Visible Passes

Search period start: 21 May 2018 00:00
Search period end: 31 May 2018 00:00
Orbit: 764 x 766 km, 98.2° (Epoch: 21 May)

Date Brightness Start Highest point End Pass type
(mag) Time Alt. Az. Time Alt. Az. Time Alt. Az.
21 May 5.2 21:35:01 10° SW 21:39:03 24° W 21:43:07 10° NW visible
23 May 5.7 22:02:24 10° WSW 22:04:55 14° W 22:07:25 10° WNW visible
24 May 4.9 21:23:24 10° SSW 21:27:48 29° W 21:32:14 10° NW visible
26 May 5.6 21:50:19 10° SW 21:53:37 17° W 21:56:57 10° NW visible
29 May 5.4 21:38:30 10° SW 21:42:21 22° W 21:46:14 10° NW visible
